Location: Aciu?a
(46.2833°N, 22.4500°E)
Time: 05:17:11
(UTC+00:00)

Cosmos 2360 Rocket - Pass Details

Date: 25 October 2021
Orbit: 832 x 846 km, 71.0° (Epoch: 04 December)

Event Time Altitude Azimuth Distance (km) Brightness Sun altitude
Rises 17:59:08 0° 225° (SW) 3,379 5.8 -26.9°
Reaches altitude 10° 18:01:40 10° 231° (SW) 2,450 5.1 -27.4°
Maximum altitude 18:07:02 45° 304° (NW) 1,141 3.2 -28.3°
Enters shadow 18:11:47 13° 14° (NNE) 2,231 4.4 -29.1°
